Theta_e
351 353 355 355 354 355 354 353 354 355 355 355 354 353 354 354 354 353 357 356 348 345 346 344 344 344 342 340 337 335 337 340 341 341 342 347 349 350 350 350 351 353 354 354 353 353 352 351 353 354 350 344 345 346 345 346 346 347 346 347 350 349 350
350 351 355 355 353 354 354 354 354 354 354 355 355 355 354 354 355 355 358 357 351 347 347 345 344 345 343 342 339 336 333 337 340 340 343 346 347 348 351 351 350 352 354 356 356 355 352 350 349 350 348 345 346 346 345 347 345 348 350 347 346 346 344
352 353 355 354 354 355 354 354 355 353 353 354 355 356 355 355 355 355 357 358 354 350 348 346 345 345 345 344 342 339 335 336 338 339 342 345 345 346 349 351 351 351 353 355 356 356 354 351 348 347 347 349 350 348 345 348 347 346 349 346 345 346 342
351 354 353 353 354 355 354 354 353 352 352 353 354 355 355 355 355 356 358 358 357 353 348 347 346 345 345 346 344 343 339 335 337 340 344 347 346 347 348 349 349 349 351 353 354 355 355 353 351 348 346 346 350 351 347 347 349 346 346 346 347 348 344
350 351 350 352 353 354 354 353 352 352 352 353 354 355 355 355 355 357 358 357 355 353 349 348 350 348 346 346 346 347 343 338 337 341 347 349 348 348 348 347 347 347 349 351 351 353 353 354 354 351 346 343 346 351 349 348 349 346 344 345 348 350 350
346 347 347 350 353 353 354 353 352 352 353 354 353 353 354 355 355 356 356 355 354 354 352 351 353 352 348 346 349 350 347 342 339 340 346 349 349 349 348 348 348 347 347 349 349 351 352 352 354 353 351 347 348 351 351 350 351 350 346 344 345 350 354
342 344 344 347 350 352 353 353 353 352 354 355 353 352 353 353 353 354 355 355 355 356 356 353 354 354 351 349 352 353 350 347 344 341 344 348 348 348 349 348 347 347 347 348 348 349 351 351 351 352 353 352 350 351 352 352 353 353 352 347 343 346 351
337 340 341 343 345 347 349 351 352 353 354 354 353 354 354 353 352 353 354 355 354 354 356 355 355 357 355 354 355 354 354 353 350 345 344 348 348 347 348 349 348 347 346 348 348 348 350 350 350 351 352 352 351 350 351 352 350 351 353 351 345 345 350
334 336 338 339 341 342 343 345 348 351 353 353 353 353 354 352 352 352 352 353 353 353 354 354 355 356 358 358 358 356 356 356 354 352 349 349 348 347 347 347 348 347 346 345 346 347 348 349 350 350 350 350 351 351 352 351 348 348 352 353 348 346 350
332 333 335 337 338 339 340 342 345 347 348 350 352 352 353 352 351 351 351 352 352 352 353 353 353 355 357 359 359 358 358 357 355 354 353 351 349 347 346 345 346 347 346 345 344 345 346 347 348 350 350 350 349 350 351 350 348 348 351 351 347 344 344
331 331 332 333 334 336 339 342 343 343 344 345 347 349 352 353 352 351 350 351 352 352 352 352 352 353 356 357 358 358 358 357 356 354 354 352 349 347 346 344 344 346 346 345 344 343 344 345 345 348 351 350 348 347 346 344 343 344 348 351 349 345 344
330 330 329 330 331 333 336 339 340 341 341 342 343 346 349 351 351 351 351 351 351 351 351 352 352 352 354 355 356 357 357 358 356 355 354 353 351 349 347 345 344 344 346 346 344 343 343 345 344 343 343 342 343 344 342 338 336 336 340 346 349 347 346
331 330 328 328 329 329 331 334 336 339 339 340 342 343 345 348 350 351 352 351 351 351 351 351 351 352 352 353 354 355 356 356 356 356 355 354 352 350 348 347 345 344 344 345 345 344 342 344 346 343 336 331 333 339 340 336 333 332 331 336 344 348 347
331 331 329 329 328 328 328 329 330 334 337 339 341 343 344 345 346 349 351 351 351 351 351 351 350 351 351 353 353 354 355 356 356 356 355 355 354 352 350 349 347 345 344 344 345 345 342 342 345 346 340 332 328 331 336 336 333 331 329 329 335 343 346
330 330 329 329 328 328 328 327 327 328 332 335 338 341 343 344 345 346 347 350 351 350 350 350 350 350 351 352 352 353 354 355 355 356 356 356 355 354 353 351 349 348 346 346 346 346 345 342 343 345 346 342 334 329 333 339 339 337 334 330 329 335 342
329 328 328 328 327 327 327 328 327 326 326 329 332 335 338 341 343 344 345 347 348 348 349 350 350 351 353 353 353 352 353 354 355 355 356 356 356 356 356 355 353 351 349 348 347 347 347 345 344 344 346 347 344 339 337 341 343 342 338 332 328 330 337
327 326 326 326 325 325 325 325 326 326 326 327 327 328 331 334 338 340 342 344 345 347 347 348 350 351 351 353 353 352 353 354 355 356 355 355 356 358 357 357 355 353 352 351 350 349 350 349 348 346 345 347 347 346 344 342 341 342 340 335 329 329 333
326 325 325 324 325 325 324 323 324 325 326 327 327 326 327 328 331 335 339 341 343 345 346 346 347 347 348 350 352 353 352 352 353 354 353 353 355 357 357 358 357 355 354 354 353 353 352 352 352 350 348 347 346 346 346 344 342 342 341 338 333 328 330
325 324 324 324 324 324 324 324 323 323 324 326 327 327 327 326 327 330 335 339 341 343 345 345 346 346 346 347 349 350 351 351 351 352 352 352 353 354 355 356 356 355 355 355 355 355 354 353 353 352 351 350 348 348 347 346 345 344 343 342 338 332 328
324 324 324 323 323 324 323 323 323 322 322 323 324 326 326 326 326 326 328 333 338 340 341 342 344 345 346 346 347 348 348 348 348 349 349 350 351 353 354 355 355 355 356 356 354 355 356 355 355 354 352 350 349 349 349 348 348 347 347 347 344 339 333
323 323 323 322 323 323 323 322 322 322 322 322 321 322 323 324 326 326 326 326 332 337 339 339 340 342 345 347 347 347 346 345 345 346 347 348 350 352 353 354 354 354 355 356 354 355 356 356 356 356 355 353 350 350 350 350 350 349 349 349 349 346 342
322 322 321 322 321 322 322 321 321 321 321 322 322 320 320 320 321 325 327 325 326 330 334 336 336 337 340 344 345 346 346 347 346 346 347 349 350 351 351 352 354 353 354 355 354 354 355 355 356 357 356 356 354 352 353 352 351 350 349 349 350 349 348
321 320 320 321 320 320 321 320 320 321 321 321 322 320 320 319 318 321 325 324 323 326 328 330 331 332 335 338 341 344 346 347 348 348 348 349 349 350 351 352 353 352 352 352 352 352 353 353 355 356 356 357 356 355 355 354 353 351 350 349 349 349 350
320 320 319 319 319 320 321 319 318 319 320 321 322 320 320 320 319 320 321 321 323 327 329 328 325 325 327 329 332 337 341 343 345 347 348 349 350 349 350 351 353 353 352 352 351 352 353 352 353 355 356 356 357 357 356 356 355 353 351 350 350 350 350
319 319 319 319 319 319 319 317 316 318 320 321 321 319 319 319 319 320 319 317 319 325 329 328 324 321 322 321 321 328 334 337 341 343 344 346 348 349 350 350 350 351 352 353 353 352 352 352 353 354 355 355 357 357 357 357 357 355 353 352 351 351 351
318 318 318 318 318 318 318 317 317 319 320 320 319 318 319 320 320 319 317 315 318 322 325 324 320 318 321 321 319 321 324 330 335 338 339 341 342 344 347 349 350 351 352 353 354 354 354 353 353 355 355 355 357 358 358 358 358 357 356 354 353 352 351
317 317 317 317 317 316 316 317 318 318 318 319 319 319 319 319 320 318 315 314 318 322 322 320 316 315 317 319 320 321 320 322 325 328 333 338 339 340 343 345 347 350 352 352 352 353 355 355 355 356 356 357 358 357 357 357 357 357 358 357 354 353 352
316 316 316 316 316 316 316 317 318 318 318 318 318 319 319 319 319 317 314 313 317 320 319 317 313 312 314 315 317 320 321 321 322 322 325 330 333 336 341 342 343 345 348 351 352 352 353 354 356 357 357 358 358 357 357 357 356 355 356 357 357 356 355
317 317 317 316 316 316 316 316 317 317 317 317 317 318 318 319 320 318 314 313 314 315 315 314 312 312 313 313 314 316 317 319 322 323 323 323 324 326 331 336 339 341 342 345 348 351 353 353 354 356 357 358 358 357 357 358 356 355 355 356 357 358 357
317 317 316 316 316 316 316 316 316 316 316 316 317 317 318 319 320 320 319 318 317 315 313 312 311 312 312 312 313 313 314 315 317 320 322 323 323 322 322 325 330 335 339 342 345 347 350 352 353 355 356 356 357 358 358 358 356 356 356 356 357 357 358
316 316 316 316 316 316 316 315 316 316 315 316 317 317 318 318 318 319 320 320 319 316 313 312 312 313 312 312 312 312 312 313 314 317 320 323 324 323 322 321 323 327 331 336 340 342 346 350 353 356 356 357 357 358 358 358 357 356 355 355 356 357 358
316 316 316 316 316 316 315 314 314 315 316 316 316 316 317 318 318 318 318 318 316 316 316 317 317 315 313 312 313 313 313 313 314 316 321 325 327 325 324 325 328 329 329 330 335 340 341 342 345 349 353 356 356 356 357 356 355 354 354 355 356 357 357
316 316 316 316 316 315 315 314 314 314 313 313 312 312 314 314 315 317 317 317 317 318 318 317 315 314 315 318 319 318 316 313 312 313 316 320 324 327 330 334 339 341 341 340 341 342 342 341 341 341 344 348 351 353 354 354 353 353 354 356 357 357 357
315 315 315 315 315 315 315 315 315 314 312 310 307 307 309 310 311 311 312 313 315 318 320 319 316 314 314 317 320 321 319 316 316 316 316 317 321 329 332 332 334 338 341 343 345 345 345 346 346 345 346 348 348 347 348 349 351 353 354 355 356 356 357
314 314 314 314 314 314 314 315 315 315 314 312 310 308 308 308 309 310 313 314 315 317 319 320 320 318 317 317 320 323 323 323 323 323 323 323 326 329 328 323 320 323 327 331 336 339 340 340 339 340 344 347 345 343 344 345 347 351 354 356 356 356 356
313 313 313 313 312 313 313 313 314 314 315 315 314 313 312 310 309 311 314 316 317 316 317 319 321 321 321 321 322 323 323 324 324 325 326 327 327 328 326 322 318 317 318 320 322 325 328 329 328 329 334 335 332 332 338 341 340 342 346 349 351 354 356
312 312 312 312 312 312 312 312 313 313 314 314 314 315 315 314 313 312 313 315 316 316 316 317 319 320 320 321 321 321 322 322 323 324 326 326 325 325 325 320 315 313 314 316 319 320 322 323 324 325 327 328 325 323 325 328 329 330 333 335 338 345 352
311 311 311 311 311 311 311 311 312 312 313 313 314 314 314 315 315 315 315 314 315 315 315 315 316 317 319 320 320 320 320 322 323 323 324 325 325 326 324 321 317 316 314 314 316 320 321 322 324 325 326 327 326 323 321 322 325 328 330 331 333 338 343
Wind_Speed
13 17 19 21 22 22 25 28 26 25 25 26 27 27 27 27 26 26 26 27 27 25 24 22 21 21 21 21 21 20 20 19 17 17 17 16 15 14 14 14 14 13 11 10 10 10 9 10 10 10 9 8 8 8 8 7 8 7 7 8 7 7 7
7 14 16 18 20 21 22 23 24 24 24 25 26 25 26 27 26 26 26 27 26 25 24 23 22 21 20 20 20 20 20 19 18 18 17 17 16 15 15 14 14 14 13 11 10 11 11 11 11 11 10 8 8 9 8 8 7 7 7 7 7 7 8
8 6 11 14 16 19 21 19 21 25 24 23 25 25 24 25 24 23 25 26 26 25 24 24 23 21 20 19 19 18 18 19 20 19 18 17 17 16 15 15 14 14 14 13 12 12 12 12 12 11 10 9 9 9 9 8 8 7 7 7 7 7 7
13 9 6 8 13 18 22 24 23 25 24 22 23 24 23 25 24 22 23 25 25 25 25 25 24 23 21 20 19 17 17 18 20 20 19 17 17 16 16 16 16 15 14 15 14 13 12 13 12 12 11 11 11 10 10 9 9 8 7 7 6 6 6
13 13 10 4 9 19 23 25 25 25 25 22 21 23 23 23 23 22 23 25 25 25 26 26 24 24 22 20 20 18 17 16 18 20 19 18 17 17 17 17 16 16 15 15 15 15 14 13 13 13 12 12 12 11 11 10 10 9 8 7 7 7 6
11 11 12 12 4 14 17 20 24 25 24 22 22 24 25 24 23 22 23 25 25 24 25 26 25 25 24 22 20 19 18 17 16 18 19 20 19 18 18 17 17 17 16 16 15 16 16 16 14 13 13 12 12 11 11 11 11 10 9 8 8 8 7
10 11 12 14 12 8 8 14 21 22 21 20 21 22 22 24 23 22 23 23 23 24 26 27 26 25 25 23 21 21 19 18 17 17 18 20 21 20 19 18 18 17 17 16 16 16 16 17 16 15 13 13 12 12 12 12 12 12 11 10 9 9 9
12 13 13 14 14 14 13 10 12 19 21 20 19 18 18 22 23 23 24 23 24 25 27 27 25 24 24 23 22 22 21 19 18 18 18 19 21 21 21 20 20 19 18 17 17 17 17 16 16 16 15 14 14 13 13 14 13 13 12 11 11 10 10
15 16 16 16 15 16 17 19 17 12 11 12 15 17 18 21 22 22 21 21 24 24 23 23 22 22 22 21 21 21 21 20 20 19 19 20 20 21 21 21 20 20 20 19 18 18 18 17 16 17 17 17 16 15 15 15 14 13 13 13 12 11 11
17 17 18 19 19 18 17 18 22 21 17 12 9 10 13 15 17 16 13 14 18 17 17 18 19 19 19 19 20 20 20 21 21 20 20 21 21 21 21 21 21 21 21 20 19 18 18 19 18 18 19 19 18 18 17 17 16 14 14 14 13 13 12
17 19 20 20 20 20 18 18 20 21 20 18 14 11 10 10 11 14 13 13 14 13 12 13 14 15 18 18 19 20 20 21 21 21 21 21 21 21 21 21 21 21 22 21 20 19 19 20 20 20 21 21 21 21 20 19 18 17 16 14 14 14 13
17 19 21 22 23 22 21 20 18 18 17 15 13 12 11 10 11 13 14 13 12 11 10 10 11 13 16 17 19 20 20 21 21 22 22 22 22 21 21 21 21 22 22 22 22 21 21 20 21 22 23 23 22 22 22 21 20 20 19 17 15 15 14
16 17 19 22 23 23 23 22 20 18 16 14 12 11 9 8 10 12 14 14 13 10 8 9 11 11 13 15 17 19 20 20 21 21 22 22 22 22 22 21 22 22 22 21 22 23 23 22 22 23 25 25 24 23 23 23 23 22 22 20 18 17 16
15 16 18 20 22 23 23 23 22 19 16 14 11 9 8 7 8 10 12 15 15 14 12 12 13 12 13 14 15 16 17 19 20 21 22 22 22 22 23 22 22 22 22 22 22 23 23 23 23 23 24 25 25 25 24 25 25 25 25 24 22 20 18
15 15 16 18 20 21 21 21 22 21 18 16 12 9 7 6 7 7 10 14 16 16 16 16 16 15 15 15 15 15 15 17 18 19 21 22 22 22 23 23 23 23 23 23 23 23 23 23 23 23 23 24 25 25 25 25 25 26 26 27 26 24 21
15 15 16 16 17 17 18 18 19 19 19 18 15 12 8 5 5 5 7 11 15 17 17 17 17 16 14 13 15 16 16 16 17 16 17 19 20 22 22 22 23 23 24 24 24 23 23 23 23 23 23 23 24 25 25 25 25 26 27 28 28 26 24
14 14 14 15 15 15 16 17 17 18 18 18 17 15 12 8 5 3 4 5 9 15 18 18 19 18 14 11 12 16 18 18 16 14 15 16 17 19 20 21 23 23 24 25 25 25 25 24 24 24 23 23 23 24 25 25 25 27 28 29 29 28 27
12 13 13 14 14 14 15 16 16 17 17 17 17 16 14 13 10 5 3 1 1 6 12 15 18 21 20 14 12 14 17 17 15 13 14 16 16 17 19 20 21 23 24 25 26 26 27 27 26 25 25 24 23 24 24 25 25 27 29 30 31 30 29
11 11 12 12 13 13 14 15 15 15 16 16 16 15 15 15 14 11 6 4 3 1 3 6 9 15 19 18 17 16 16 16 15 14 15 17 18 19 20 20 21 22 23 24 24 25 26 27 27 27 27 26 26 25 25 24 25 26 28 30 32 32 31
10 10 10 11 12 12 13 14 14 14 15 16 15 14 14 14 15 15 12 9 6 5 6 7 7 8 12 16 17 18 19 19 19 18 18 19 20 22 21 21 22 22 22 23 23 23 24 25 25 26 27 27 28 28 27 26 26 26 28 30 32 32 32
9 9 10 10 11 11 12 12 13 13 13 15 15 14 13 14 14 14 14 13 9 9 10 11 11 8 8 13 13 15 20 24 26 26 23 22 23 23 21 22 22 21 21 23 21 20 22 23 22 23 25 26 27 28 29 29 29 29 29 30 32 33 33
7 8 9 10 10 10 10 11 12 13 12 13 13 13 14 14 13 13 13 13 11 10 10 11 11 10 6 6 7 11 17 20 24 25 22 21 22 22 22 23 23 21 21 21 19 20 22 22 22 23 24 25 25 27 28 29 30 32 33 33 34 34 33
6 6 8 8 9 9 9 10 12 12 11 11 11 12 14 14 14 14 13 13 14 13 12 11 10 10 8 6 4 6 10 13 17 19 19 20 22 23 23 23 22 21 20 20 21 23 25 23 22 22 23 24 25 26 28 28 29 32 34 35 35 35 33
5 5 6 7 8 8 7 10 12 11 11 11 10 11 12 13 13 13 13 13 13 13 14 14 13 11 10 10 9 5 5 7 10 14 16 17 18 19 21 21 20 20 20 20 23 25 25 24 24 24 24 25 25 26 27 28 29 31 33 34 35 35 34
3 4 4 6 7 7 8 12 13 11 11 10 11 12 12 12 12 11 13 15 13 12 13 13 13 11 10 11 12 10 9 8 8 8 9 10 11 13 15 19 21 21 19 20 23 24 25 26 26 26 27 27 26 26 27 28 29 31 33 34 34 34 34
4 4 5 6 6 7 10 12 11 10 10 11 13 14 13 12 12 12 14 16 14 11 12 13 14 12 9 8 8 9 12 12 11 9 9 9 8 7 9 13 18 20 20 21 23 23 24 26 27 27 27 27 25 26 27 28 28 30 32 33 35 35 34
5 5 6 7 8 10 10 9 8 9 10 11 13 13 12 13 14 15 18 17 14 12 12 15 17 16 14 11 8 8 11 12 12 13 12 10 7 6 7 10 13 17 20 23 25 25 25 26 27 27 27 26 26 27 28 28 29 29 30 32 35 35 35
5 6 7 8 10 10 9 8 8 9 9 10 11 11 11 12 15 18 21 20 16 14 14 17 20 20 18 16 14 12 11 10 11 12 11 10 9 8 8 9 12 15 18 22 26 27 27 28 28 27 26 25 27 28 29 29 30 30 31 31 32 33 33
5 5 7 8 9 9 10 10 11 11 11 11 11 11 11 12 14 18 22 22 21 20 20 21 22 22 22 20 18 17 16 15 14 13 10 8 9 10 10 10 12 14 16 20 23 26 28 29 30 29 27 27 28 28 29 29 30 31 32 32 33 33 32
5 5 6 7 8 9 10 11 12 13 13 12 12 12 12 12 13 15 18 20 21 23 25 25 25 24 24 24 22 21 20 20 19 17 14 13 10 8 9 11 12 13 15 17 20 22 24 26 28 28 28 29 29 27 26 27 28 29 31 31 32 33 34
5 6 6 7 8 10 11 12 12 13 13 13 12 13 13 13 14 14 15 17 20 23 26 27 27 26 26 26 26 25 24 23 23 21 18 17 16 15 13 11 11 13 14 16 18 19 20 23 25 27 27 27 27 25 24 24 26 28 30 30 30 31 33
7 7 7 7 8 10 13 14 14 14 14 14 13 13 13 13 14 16 17 19 21 22 23 23 23 26 28 28 28 27 26 26 25 22 19 17 18 20 19 16 14 15 16 18 19 18 17 19 23 25 26 26 26 26 26 25 25 26 28 30 31 31 31
9 9 8 8 8 10 12 13 15 15 16 17 16 16 16 16 16 16 17 18 19 19 19 22 24 26 26 25 24 25 27 29 29 27 25 22 20 19 19 17 15 15 17 19 20 18 17 17 19 21 23 24 25 26 26 25 24 24 25 28 31 30 29
10 11 11 11 11 10 11 12 14 16 18 19 19 18 18 18 18 18 19 19 18 17 18 22 24 26 26 25 24 24 26 28 29 28 27 26 22 18 19 21 21 20 19 18 17 17 17 17 18 18 18 19 20 23 25 26 25 25 25 27 29 28 26
10 12 13 13 13 13 12 13 14 15 18 19 20 20 20 20 19 19 19 19 19 18 19 19 21 23 25 25 24 22 21 21 21 21 21 20 19 20 24 28 30 30 29 26 23 21 20 20 21 20 18 17 19 22 25 26 24 24 26 28 29 27 25
11 13 14 15 15 16 16 16 15 15 17 18 19 20 20 21 20 19 18 18 19 20 20 20 20 21 21 21 20 19 18 18 18 17 17 17 18 21 25 29 32 34 35 35 33 30 28 27 27 26 24 24 24 25 26 27 26 26 28 30 29 28 26
12 13 14 16 17 18 18 19 18 18 17 17 17 18 18 19 20 20 20 19 19 20 21 21 22 22 22 21 20 20 20 20 20 20 20 21 23 24 27 33 38 39 38 38 36 34 33 33 33 31 28 27 28 29 29 30 29 29 31 32 32 32 30
12 14 15 16 17 18 19 20 20 20 19 18 17 17 17 18 19 20 21 21 21 22 22 23 24 25 24 23 23 24 23 23 22 22 22 23 25 25 28 32 37 38 38 38 37 35 34 33 34 33 31 29 30 32 31 30 28 27 28 28 30 32 33
Wind_Direction
177 183 188 194 196 200 204 201 199 197 193 190 189 190 190 188 188 186 186 193 196 194 195 196 195 196 199 203 205 206 205 204 202 201 203 201 196 197 200 198 201 200 193 194 198 195 196 193 192 202 206 199 194 196 195 188 182 183 186 180 181 189 180
168 187 187 191 195 203 207 201 199 199 194 191 191 192 192 190 189 187 186 192 197 196 195 196 196 196 198 201 205 208 208 206 203 202 201 202 200 197 199 199 200 201 194 189 192 196 200 200 199 202 207 203 200 202 197 195 193 185 188 190 182 186 183
75 158 178 186 192 200 206 202 198 198 196 195 194 193 194 192 191 189 188 192 196 197 198 198 197 197 198 200 205 208 209 208 207 205 201 202 204 200 199 200 200 201 199 192 190 194 198 201 201 202 206 202 203 210 205 199 200 195 193 192 187 189 182
74 76 118 175 194 202 207 206 202 198 198 200 198 196 197 194 190 188 189 194 198 198 201 201 199 200 200 201 204 208 209 210 210 208 202 200 204 200 199 203 202 200 202 200 197 195 196 201 202 203 205 202 203 210 211 205 204 203 201 198 194 195 190
71 59 54 55 203 205 206 206 202 198 199 202 201 198 198 196 192 189 192 199 202 202 203 201 199 201 203 202 203 207 210 210 210 209 203 199 202 201 200 204 205 203 203 203 203 202 200 200 202 206 208 207 206 207 210 209 207 206 206 206 203 202 205
64 60 52 44 123 194 204 206 200 194 197 203 204 201 197 196 195 195 199 204 205 204 204 202 197 198 202 202 200 204 210 212 211 210 205 200 202 202 202 204 205 206 207 205 205 207 207 203 200 204 209 207 206 207 212 213 209 210 211 208 208 208 209
64 68 65 58 74 112 168 196 197 193 193 196 202 201 196 195 198 199 201 204 205 204 202 199 195 194 198 200 198 200 207 211 212 212 208 204 204 204 204 206 206 206 207 208 207 207 210 212 206 203 206 206 204 206 211 215 211 211 215 212 209 209 205
55 58 60 64 70 74 85 115 163 187 194 193 189 187 186 192 200 204 203 205 209 206 200 196 192 191 194 195 196 199 201 205 209 212 210 206 206 207 206 207 208 207 207 209 210 208 209 214 213 208 207 206 206 205 208 217 217 209 213 217 213 211 207
50 52 51 55 61 62 68 76 89 121 161 176 178 183 190 197 202 203 205 214 218 211 201 195 192 191 192 192 195 198 199 200 204 209 209 205 205 208 207 208 209 209 209 209 212 213 211 211 211 213 215 210 208 208 207 216 221 211 211 219 217 214 211
49 51 51 53 55 56 67 84 91 89 83 87 116 160 180 193 202 197 193 212 222 218 207 200 196 194 194 194 197 199 201 202 202 205 208 206 206 207 206 208 209 211 213 211 211 214 216 214 210 212 218 216 211 213 212 214 218 214 212 219 221 219 216
50 51 53 54 55 60 71 86 96 94 87 82 78 87 120 152 184 191 190 200 214 220 212 201 200 201 201 201 202 201 203 206 205 205 207 207 208 209 208 208 208 211 214 213 211 212 216 219 216 212 216 219 217 218 219 219 221 218 214 217 222 223 221
55 52 53 56 56 62 72 78 85 91 93 94 91 90 105 125 147 168 180 187 203 223 221 204 205 208 207 208 208 205 204 206 208 208 209 209 210 211 211 210 209 209 212 213 212 211 212 218 221 220 221 224 224 222 224 226 225 224 220 215 219 224 224
64 58 55 57 57 59 67 72 78 83 85 92 101 109 123 131 135 149 158 160 172 199 220 227 229 223 216 214 212 210 208 208 210 210 210 212 212 212 213 213 212 211 211 212 213 212 212 213 218 224 228 231 230 226 227 229 229 228 226 220 217 221 224
71 65 58 55 54 56 59 63 68 75 81 87 95 112 134 145 146 154 165 169 174 181 191 211 226 227 225 224 222 217 212 211 212 212 212 213 213 214 215 215 215 214 212 212 212 213 214 213 214 221 228 232 234 231 229 231 231 231 230 227 222 220 223
72 68 61 53 50 50 50 53 59 67 73 80 88 100 124 156 168 168 179 188 192 194 195 199 206 212 218 225 229 228 223 216 214 214 213 213 214 215 216 217 217 216 215 215 215 214 215 216 215 217 222 227 233 234 230 229 230 231 231 231 229 225 224
71 67 63 56 50 48 46 46 51 59 64 71 78 82 91 130 172 190 202 205 207 209 209 207 205 206 209 218 223 226 228 223 219 220 217 215 216 216 217 218 219 219 219 218 218 218 217 217 217 217 219 222 226 230 229 225 226 230 232 234 233 231 228
68 65 62 58 53 48 46 44 44 49 54 57 62 67 71 81 101 162 202 222 227 223 222 224 221 217 219 226 225 220 220 219 218 222 223 221 221 220 220 221 221 221 223 222 220 220 220 220 219 219 220 222 224 226 226 226 227 230 236 239 238 235 232
67 63 58 56 53 46 43 41 38 41 44 43 45 48 50 53 58 77 128 99 291 237 233 235 234 231 232 244 252 232 218 220 226 230 231 228 225 225 227 229 229 225 224 224 223 222 222 223 223 223 223 225 226 227 228 229 230 231 236 242 244 241 237
65 62 56 52 51 46 41 38 34 34 37 35 34 34 34 37 39 40 50 59 57 13 275 264 251 243 239 247 259 245 220 221 232 237 241 240 236 235 233 234 238 236 230 226 225 224 224 225 227 228 229 229 228 229 231 232 233 234 236 241 246 247 244
57 56 54 48 47 43 38 35 31 28 30 30 29 29 28 27 27 29 34 41 59 62 18 345 314 273 244 240 252 246 230 232 240 242 248 253 250 246 241 237 240 241 239 234 229 226 226 227 227 230 233 235 234 232 232 232 233 235 238 242 247 249 248
52 48 45 40 38 36 32 30 26 23 23 23 20 20 24 25 22 20 24 28 42 61 39 5 349 328 258 235 240 240 232 238 245 245 250 257 256 253 249 246 244 241 243 243 237 233 232 230 230 231 233 237 238 236 236 235 233 233 235 239 245 248 249
52 41 35 32 27 26 25 22 19 18 18 17 13 11 12 16 19 20 19 17 22 39 39 17 6 3 333 260 247 239 233 238 244 245 249 256 255 252 251 251 247 243 246 247 243 239 236 231 230 233 233 235 237 237 237 237 236 236 236 238 242 246 249
62 38 28 23 14 15 16 11 9 8 10 11 8 7 6 4 9 14 10 9 12 13 12 8 6 6 3 352 316 258 247 252 252 249 250 254 254 253 252 250 245 240 243 244 240 238 236 231 228 232 234 234 235 236 237 237 238 239 240 241 242 244 247
70 40 28 11 0 4 358 352 355 358 2 2 355 358 1 357 360 4 359 2 10 5 356 354 355 1 4 359 350 328 298 288 275 261 254 254 259 261 259 257 254 247 241 239 237 236 236 233 230 232 235 234 233 235 237 238 239 240 242 243 243 244 245
52 27 14 357 355 351 333 336 344 349 354 349 338 344 351 348 350 353 346 349 359 1 354 345 342 352 3 358 351 344 345 343 322 295 278 271 272 271 266 262 258 252 244 239 241 244 242 237 234 234 235 233 235 238 238 238 239 242 243 244 244 244 244
12 359 352 347 341 327 324 333 338 338 341 334 326 333 339 336 336 334 333 339 347 350 347 335 329 334 342 346 346 337 336 340 334 326 325 315 296 287 282 268 255 250 248 247 249 253 250 243 239 239 239 237 238 240 240 239 240 241 243 244 245 244 244
348 342 340 335 324 320 325 331 326 323 328 326 324 330 331 326 323 318 317 326 333 334 332 325 322 324 323 322 323 314 315 327 332 333 336 334 319 297 294 285 268 259 257 254 252 252 252 249 246 245 245 242 241 241 241 242 243 243 245 248 248 248 246
348 341 334 328 326 329 329 325 320 319 320 320 321 323 319 316 313 308 308 313 317 317 316 314 315 317 315 314 315 309 299 299 308 318 330 342 340 315 288 278 273 268 265 261 255 251 250 249 247 246 248 247 246 245 245 245 246 246 248 251 254 254 253
359 345 337 332 331 331 328 322 321 317 315 316 316 313 312 312 307 302 303 306 306 305 304 304 307 310 309 307 308 307 303 297 292 291 296 316 334 328 310 292 279 272 268 267 264 258 252 249 245 246 249 250 249 249 249 250 252 252 249 250 253 254 255
356 343 339 334 328 327 325 323 321 317 316 316 315 313 312 309 306 304 304 304 302 301 299 299 301 303 304 304 303 302 303 303 300 294 286 281 285 296 302 304 301 291 281 278 277 273 266 258 251 249 250 252 251 252 253 253 253 254 252 251 251 253 254
343 340 335 329 325 323 320 318 318 317 317 317 316 315 312 308 306 304 302 301 299 299 301 302 303 302 300 300 299 298 298 299 301 302 299 291 282 273 268 273 285 289 284 281 280 279 277 270 262 255 254 255 255 257 258 256 255 258 259 255 251 250 251
330 333 331 328 326 320 315 315 315 314 312 313 313 312 310 307 305 302 300 299 300 303 305 304 302 301 301 301 300 298 296 294 295 297 299 296 289 282 277 276 283 287 286 283 280 277 277 276 270 265 262 262 264 266 265 261 261 266 266 258 251 248 247
323 325 324 323 322 319 317 314 312 309 307 305 304 305 305 303 302 301 300 301 302 302 300 297 296 298 300 300 298 296 294 294 293 292 290 289 287 285 282 281 280 280 280 281 283 284 284 284 282 278 276 274 275 275 270 263 262 267 267 262 258 255 252
317 317 318 319 318 317 316 312 308 307 305 301 300 301 301 300 299 299 299 300 303 303 299 297 297 298 297 296 295 294 295 297 296 293 291 289 285 279 272 269 267 267 267 270 275 280 283 283 281 280 281 281 280 277 273 270 269 270 270 268 266 264 261
311 311 313 315 314 314 312 309 307 305 304 303 302 301 299 297 296 299 301 302 302 301 300 299 299 298 297 296 294 293 294 294 292 289 287 284 280 277 276 275 273 272 270 267 264 260 257 259 262 264 266 269 271 273 274 274 275 272 269 269 270 269 266
305 308 309 310 310 311 310 308 306 304 302 301 302 301 299 296 294 295 298 299 299 298 298 299 299 297 296 293 289 286 285 284 283 280 277 274 274 279 281 281 279 277 275 273 270 265 260 261 265 265 265 266 267 267 267 268 270 270 268 271 274 273 268
302 304 306 307 308 308 308 308 307 305 302 300 299 298 298 297 296 296 296 296 297 297 295 294 293 292 291 289 285 282 280 279 277 276 274 273 275 277 280 281 280 280 279 279 277 274 271 272 273 272 270 267 265 265 265 264 265 266 268 270 273 273 271
299 301 302 304 305 305 306 306 306 304 303 301 299 296 295 294 294 295 294 293 293 293 291 290 290 289 288 287 285 283 281 278 276 275 274 275 275 276 279 282 283 282 281 282 282 279 275 274 274 273 270 266 262 263 266 268 268 268 269 269 270 270 270